Wind_Speed
8 8 9 10 11 11 11 13 14 16 17 18 20 21 23 27 31 20 7 9 7 10 12 11 12 14 16 6 7 5 8 12 12 16 15 15 19 10 3 3 0 7 7 12 20
10 10 10 11 12 11 11 12 14 15 16 18 19 20 22 25 26 14 11 10 11 7 6 7 7 11 5 5 5 6 8 15 10 12 14 19 15 9 8 4 3 2 7 22 23
10 11 10 11 12 14 14 14 15 16 18 18 19 20 21 22 6 0 5 4 3 9 6 6 12 6 8 8 10 8 17 13 15 17 20 19 19 8 7 6 7 6 7 11 7
11 11 12 14 14 15 15 15 15 16 18 19 19 19 17 7 3 2 2 5 8 7 5 8 6 6 4 8 8 17 17 17 18 21 23 23 9 12 3 7 8 8 4 8 10
10 10 13 15 17 15 16 16 17 18 19 19 18 13 6 3 8 5 4 6 10 11 8 6 8 7 11 6 11 18 15 17 16 17 16 14 17 14 19 6 13 10 8 7 8
9 11 14 15 17 17 18 17 18 19 18 15 9 3 2 5 5 12 12 8 11 12 16 12 6 9 11 13 9 8 14 14 12 15 13 13 18 7 15 6 10 16 14 9 9
10 12 15 17 16 17 18 18 18 18 12 7 3 1 4 13 16 17 12 14 12 13 6 14 16 4 10 10 9 9 13 16 14 11 14 9 19 17 9 10 20 14 16 18 10
12 14 15 18 17 18 18 19 18 14 10 4 3 3 6 8 10 6 15 16 13 16 13 14 14 6 3 8 9 9 8 7 8 11 11 12 26 12 10 9 18 23 19 19 19
14 14 15 17 16 18 19 21 15 11 6 2 2 4 6 3 5 18 10 11 16 18 15 17 12 3 5 5 7 5 9 13 20 14 16 15 21 17 14 14 18 18 19 20 21
14 14 15 14 15 16 21 19 12 8 6 5 12 3 6 4 13 16 17 19 9 5 6 6 3 4 2 2 8 5 7 11 18 9 13 19 13 14 9 11 9 12 16 13 21
12 13 13 13 13 13 21 5 5 1 5 5 2 5 6 10 14 6 16 17 5 3 4 7 3 7 12 14 18 16 16 20 19 18 10 15 8 11 8 13 13 15 13 14 6
10 11 12 9 9 9 9 4 3 2 6 6 4 5 13 3 7 4 15 7 7 7 11 6 7 13 13 14 15 14 16 15 14 10 10 13 18 9 5 14 14 15 9 9 9
10 8 9 8 4 3 14 7 5 5 3 5 7 6 2 7 5 11 8 4 7 8 12 9 13 16 13 13 12 14 13 9 14 14 11 12 14 8 6 13 21 19 15 9 9
9 7 4 2 2 5 5 6 6 3 2 6 5 1 3 5 3 9 8 3 5 7 13 8 7 17 15 16 12 17 9 10 12 10 11 2 12 16 6 14 19 18 15 9 7
8 5 1 2 3 4 6 4 5 3 1 9 5 4 3 4 7 2 13 4 7 13 7 8 15 15 16 12 14 21 20 17 10 8 7 12 6 23 8 11 14 20 18 13 8
6 3 3 2 1 7 6 3 3 3 4 3 4 2 2 6 8 4 5 9 12 12 10 12 10 11 9 12 14 16 22 17 8 4 10 15 5 20 13 13 13 16 18 21 10
6 4 4 3 2 4 3 1 3 2 6 4 2 3 6 7 4 5 6 8 4 7 6 11 10 8 5 8 10 17 13 6 9 7 12 10 10 18 11 12 16 18 9 6 17
5 5 6 3 2 3 2 3 2 3 6 4 4 8 6 1 2 5 5 5 9 6 5 6 8 13 19 13 9 9 3 5 6 5 11 7 11 17 9 14 18 17 8 14 12
5 5 3 7 1 3 4 2 0 4 4 5 7 6 5 5 5 6 6 8 5 6 4 6 10 14 16 16 10 9 7 2 7 8 7 5 8 11 18 22 17 17 13 13 8
3 5 6 5 6 1 3 3 4 5 5 4 2 5 6 9 6 7 5 8 13 10 8 6 10 11 12 12 14 5 3 4 3 4 5 5 7 6 14 9 14 9 13 10 6
3 2 5 7 5 2 3 1 6 8 5 3 6 5 5 6 7 8 5 10 13 13 10 6 6 10 12 5 14 11 8 1 3 6 3 4 3 13 21 21 11 15 13 9 5
2 2 5 5 2 3 2 3 2 4 5 3 1 3 5 6 5 5 7 8 10 8 7 6 4 8 12 14 13 6 4 3 4 4 2 3 2 14 21 20 13 11 5 9 6
2 3 3 1 2 1 2 5 3 0 5 4 4 4 3 4 4 6 5 5 5 5 4 5 3 6 7 3 5 6 10 4 2 3 3 3 4 11 17 20 7 4 16 3 5
1 2 1 1 2 5 4 3 5 3 1 1 3 3 5 5 6 6 6 6 8 11 4 5 2 8 10 12 9 4 18 17 6 2 3 4 11 6 12 16 17 8 15 18 5
2 2 4 2 3 5 3 4 2 3 1 4 1 10 5 3 6 5 11 11 9 13 3 1 2 7 9 12 14 16 17 10 11 7 5 8 8 5 10 6 14 16 23 19 9
3 3 2 3 6 7 3 4 3 7 3 2 4 4 4 3 2 7 10 6 5 6 7 0 3 3 8 12 12 12 12 12 7 14 6 8 4 7 8 7 7 11 13 16 18
2 2 4 1 3 4 4 4 9 4 3 1 3 3 5 4 6 11 11 15 10 10 5 4 3 3 4 7 13 5 6 12 14 6 7 6 10 11 6 11 11 12 15 16 16
Wind_Direction
313 320 324 328 325 325 325 325 325 323 322 323 325 327 329 325 320 322 245 247 242 264 287 292 276 276 260 252 254 261 251 246 250 259 270 293 293 314 255 123 146 182 148 152 142
306 310 313 321 321 315 315 321 318 315 314 316 318 322 326 325 327 275 249 240 262 289 297 261 258 253 237 253 238 209 244 241 243 264 270 281 293 341 318 240 280 137 129 139 145
295 302 308 315 314 315 317 318 315 315 315 317 319 321 327 329 305 326 146 127 326 312 294 281 282 275 237 222 234 245 249 261 268 274 277 280 302 307 311 295 228 186 206 169 162
292 299 309 313 311 315 315 314 312 312 314 316 317 318 322 323 314 150 52 331 334 342 291 285 262 252 252 250 245 246 251 248 250 252 263 272 279 293 251 273 290 291 205 207 228
287 297 306 311 311 313 311 313 315 314 315 312 309 317 338 254 254 222 26 346 326 299 245 258 287 283 251 248 242 257 261 260 263 264 267 267 269 266 276 278 303 311 307 268 212
279 295 303 306 310 312 312 314 317 317 315 314 311 314 238 256 259 346 328 318 296 300 306 306 259 272 281 275 272 270 279 279 276 270 268 268 267 263 271 282 275 292 292 274 260
281 296 302 308 308 310 313 314 316 317 320 327 319 157 262 248 313 319 308 300 308 320 264 289 306 2 331 321 299 313 312 307 293 274 280 294 281 255 253 267 278 259 275 283 256
284 297 304 309 310 315 314 311 311 311 310 316 304 195 252 258 310 319 326 318 313 306 317 308 293 272 258 291 308 316 300 286 279 302 277 257 271 276 259 259 258 262 257 254 257
289 299 304 311 313 316 314 310 295 300 299 284 253 207 272 286 297 314 301 269 276 286 286 282 273 225 291 279 301 235 261 275 286 262 274 268 270 264 241 240 255 254 251 246 242
286 296 306 312 318 320 320 312 272 260 282 249 267 301 259 338 315 295 286 267 254 249 266 238 212 206 280 211 253 245 258 270 271 267 254 256 274 300 312 301 307 306 281 260 238
278 293 305 315 323 330 332 320 2 319 250 265 257 279 350 329 306 279 7 325 351 233 231 252 156 223 230 219 235 247 252 265 275 286 274 281 238 267 279 296 299 297 315 330 256
275 291 306 317 324 356 22 62 42 269 322 261 265 260 253 250 303 332 4 23 349 326 317 326 228 236 248 246 252 253 255 265 284 282 276 273 274 249 258 282 281 286 288 291 316
266 282 306 324 303 345 72 59 355 332 261 258 222 270 23 303 287 297 2 19 315 327 318 305 291 311 315 305 301 281 259 266 259 274 276 282 277 266 243 259 274 275 279 267 274
261 275 312 323 326 359 75 16 356 320 15 163 202 192 238 304 284 316 28 26 319 304 313 275 328 327 318 312 315 300 322 307 311 290 277 259 283 271 260 241 263 267 270 255 283
259 272 335 97 322 30 46 2 320 308 269 168 119 149 289 287 311 198 352 7 306 294 290 260 291 288 295 295 303 290 300 292 285 295 299 270 280 284 221 245 240 260 261 254 176
247 259 149 128 123 35 354 42 298 54 231 122 124 126 300 331 295 314 19 344 286 275 276 274 257 252 260 299 295 289 277 283 270 267 269 264 232 277 273 264 248 259 256 250 161
251 214 172 98 96 16 22 358 53 194 182 130 86 10 336 287 359 24 357 307 306 329 320 310 297 310 19 347 333 359 354 304 270 242 251 242 245 243 283 275 264 273 272 129 137
213 167 144 57 226 109 44 62 200 123 59 29 20 323 272 280 48 2 311 314 317 3 349 337 329 356 342 341 316 330 42 267 261 248 254 261 244 255 263 260 257 269 174 123 126
169 168 184 174 198 161 90 126 326 10 12 16 321 259 285 68 48 355 325 288 7 7 324 311 279 321 322 333 331 308 290 167 297 245 257 256 280 307 281 257 253 232 151 127 124
173 197 138 172 147 216 82 213 116 59 33 5 298 29 9 356 343 341 298 3 342 10 24 332 312 315 320 332 317 290 330 353 255 276 233 242 244 255 318 5 18 43 118 106 112
185 113 141 152 150 76 159 59 113 92 40 6 17 357 355 351 355 327 316 325 19 2 343 288 280 307 319 297 297 333 290 232 296 262 281 329 282 358 2 325 40 4 316 82 137
259 105 167 158 106 232 100 38 25 84 152 172 208 314 7 340 290 307 335 19 349 12 335 16 283 293 313 305 315 297 20 35 243 335 318 202 246 12 11 351 86 330 351 40 347
191 127 144 149 126 72 152 90 23 344 58 31 9 45 336 330 333 320 311 341 347 4 359 350 334 313 313 9 6 360 307 239 244 245 249 329 323 3 22 345 328 119 293 63 100
16 100 324 112 276 130 143 119 137 104 92 161 253 270 39 357 330 303 352 338 344 333 261 26 269 273 283 281 284 300 289 279 194 216 289 261 302 341 12 355 331 316 348 324 14
26 186 168 170 326 110 122 136 146 139 149 230 63 47 12 330 305 352 332 325 317 302 133 138 280 313 310 308 302 298 299 313 304 263 168 278 287 20 16 358 311 332 312 308 357
114 104 33 108 111 106 76 223 198 114 95 9 49 345 312 270 230 310 312 320 276 299 344 267 270 281 307 295 282 318 311 325 306 302 248 247 262 101 73 223 230 279 336 35 43
264 325 96 118 163 126 197 113 89 75 253 68 188 223 281 349 303 277 269 267 253 292 308 257 298 319 262 313 321 316 21 338 333 9 11 39 22 68 109 30 40 19 21 25 24
Height
814 813 812 809 807 804 803 802 799 798 796 793 790 787 784 778 773 771 769 764 762 763 763 764 764 765 766 767 763 761 782 782 778 769 755 733 729 716 707 711 709 710 714 717 721
816 813 810 808 805 803 801 799 797 796 794 792 790 787 784 778 773 765 760 762 762 762 762 762 762 762 768 764 765 770 773 768 757 752 749 735 731 732 727 718 717 715 712 716 720
813 813 810 807 804 802 799 796 795 793 792 790 788 785 783 779 775 760 760 761 762 761 761 761 760 759 764 762 762 760 764 757 751 744 738 737 732 728 732 735 722 722 717 715 717
811 811 809 807 803 801 798 795 793 791 789 787 786 784 782 781 779 759 760 761 760 759 760 759 758 762 763 766 755 762 748 747 743 738 736 735 730 728 730 732 718 713 712 711 712
809 809 808 805 803 800 797 794 791 788 786 784 783 782 781 781 769 760 759 759 759 758 758 758 760 759 761 754 752 751 745 738 733 731 730 727 726 726 718 720 715 712 710 713 714
805 807 807 804 801 799 795 793 789 786 783 781 780 781 782 781 760 761 759 758 757 757 756 756 756 753 754 750 752 742 738 736 730 729 727 729 722 723 714 713 715 711 710 710 708
805 804 804 802 799 796 794 791 787 784 782 780 779 780 780 769 756 756 756 756 755 754 753 753 752 756 756 755 742 741 747 736 730 729 728 725 726 721 712 712 708 711 708 704 704
805 802 801 799 796 794 792 788 784 782 781 779 778 779 774 759 757 756 755 754 753 751 751 750 750 752 755 751 748 754 749 753 731 728 720 727 729 716 709 712 712 703 702 700 698
804 800 798 795 793 792 788 785 781 781 779 779 779 778 769 758 757 755 753 752 750 748 747 747 748 753 756 764 768 759 765 756 737 727 726 727 726 709 704 704 705 702 696 694 691
800 798 797 792 790 789 787 781 778 779 779 780 779 783 763 760 757 754 751 749 747 745 747 747 751 762 764 771 775 764 761 746 738 732 725 722 720 711 709 708 710 709 698 688 680
796 795 792 790 788 788 784 781 781 781 779 770 768 765 760 759 754 751 748 745 742 745 755 745 761 769 760 754 748 749 752 747 734 722 727 723 725 718 710 707 708 704 699 696 682
792 792 790 787 787 786 783 785 790 792 785 765 764 764 759 758 759 750 750 754 754 759 749 751 759 742 735 736 738 738 740 740 726 720 721 719 712 712 704 703 700 699 699 695 685
789 788 788 785 785 785 786 788 790 789 789 765 762 760 759 759 759 757 752 754 760 759 757 761 748 731 732 735 735 731 733 734 731 719 715 716 719 712 698 695 690 689 688 688 685
787 786 784 781 787 784 786 788 790 790 790 767 764 760 759 757 762 752 754 757 760 760 756 751 737 740 741 740 735 737 725 723 723 726 734 715 734 707 703 698 691 685 684 684 680
786 785 782 781 783 783 787 787 790 791 787 764 760 759 757 762 760 755 753 755 763 759 759 758 749 748 745 737 732 734 722 725 721 728 730 720 731 693 699 698 693 682 678 676 678
782 783 780 782 783 785 783 786 791 795 782 765 759 762 764 761 759 756 758 757 752 753 750 748 738 738 738 730 728 722 720 718 721 726 735 718 729 711 709 697 685 676 670 663 669
779 781 780 780 783 782 784 788 795 794 754 766 764 763 767 766 761 761 766 769 769 770 764 751 744 735 728 739 731 731 738 742 739 738 730 710 719 708 690 686 680 677 673 657 667
777 778 779 781 781 781 783 793 791 755 761 763 765 768 770 761 762 767 770 772 763 764 767 765 765 748 741 749 747 743 750 759 742 736 726 711 714 695 683 673 669 669 672 662 669
776 777 780 780 782 782 786 793 784 771 769 773 769 769 763 763 771 771 774 771 764 764 773 770 762 751 746 744 748 744 747 749 753 737 740 722 700 688 677 667 663 663 667 668 674
774 776 777 779 780 783 788 773 773 773 776 774 777 768 780 779 780 781 775 767 769 767 769 770 775 757 749 749 744 745 740 755 750 737 729 715 709 707 688 683 680 673 669 674 677
773 776 778 779 782 783 793 778 774 775 781 783 782 784 783 787 787 788 780 776 776 776 771 770 770 766 757 755 755 748 746 748 756 742 729 731 718 724 721 706 694 694 687 675 683
771 780 776 779 786 780 783 774 780 777 782 781 784 784 789 790 790 787 783 782 779 779 781 775 776 776 770 754 749 743 755 760 755 753 750 747 734 733 732 719 698 710 697 696 682
770 774 773 775 791 794 776 778 779 781 780 783 785 785 788 792 798 786 783 779 778 781 782 779 786 791 767 758 750 761 750 745 761 761 759 753 731 726 726 736 717 709 700 692 689
768 782 777 777 773 777 779 781 785 787 786 785 786 785 791 797 791 791 785 779 778 777 776 781 784 787 789 773 759 773 759 736 740 754 748 742 731 727 732 738 732 719 713 710 692
769 770 768 786 786 778 778 784 786 787 786 786 785 792 796 801 798 792 789 785 780 774 779 781 791 783 774 766 758 750 742 731 733 731 747 728 726 723 729 740 732 729 717 705 696
773 770 768 774 774 781 788 785 781 786 793 794 795 795 796 800 806 804 795 793 789 778 782 783 790 778 768 756 754 748 741 732 727 721 720 718 720 716 726 735 735 734 723 714 707
766 764 770 777 779 787 791 783 790 794 790 787 794 799 797 795 792 788 786 782 784 783 789 787 777 776 769 753 753 752 747 739 734 721 722 731 747 733 736 734 739 737 729 724 721